MDT,Max TemperatureF,Mean TemperatureF,Min TemperatureF,Max Dew PointF,MeanDew PointF,Min DewpointF,Max Humidity, Mean Humidity, Min Humidity, Max Sea Level PressureIn, Mean Sea Level PressureIn, Min Sea Level PressureIn, Max VisibilityMiles, Mean VisibilityMiles, Min VisibilityMiles, Max Wind SpeedMPH, Mean Wind SpeedMPH, Max Gust SpeedMPH,PrecipitationIn, CloudCover, Events, WindDirDegrees
2012-10-1,53,43,33,27,23,21,65,49,28,30.61,30.55,30.52,10,10,10,32,20,40,0.00,1,,352
2012-10-2,53,44,35,27,20,10,49,39,28,30.54,30.47,30.42,10,10,10,15,6,26,0.00,0,,266
2012-10-3,53,45,37,21,17,10,42,34,25,30.50,30.44,30.40,10,10,10,20,7,33,0.00,1,,240
2012-10-4,46,40,35,23,19,18,52,42,34,30.52,30.47,30.41,10,10,10,34,19,50,0.00,3,,222
2012-10-5,46,38,30,23,19,16,64,50,31,30.40,30.35,30.31,10,10,10,32,20,44,0.00,1,,220
2012-10-6,44,37,30,18,9,-6,55,36,15,30.31,30.25,30.20,10,10,10,24,16,43,0.00,1,,220
2012-10-7,41,32,23,12,1,-8,54,29,16,30.33,30.25,30.17,10,10,10,25,17,31,0.00,0,,228
2012-10-8,41,34,28,14,2,-9,48,28,17,30.35,30.33,30.29,10,10,10,21,14,34,0.00,0,,217
2012-10-9,46,38,30,19,15,5,55,43,30,30.43,30.36,30.31,10,10,10,20,14,31,0.00,0,,221
2012-10-10,48,40,32,23,20,18,60,48,34,30.48,30.44,30.40,10,10,10,24,16,34,0.00,0,,222
2012-10-11,48,40,32,32,25,21,100,60,34,30.50,30.45,30.41,10,9,0,20,14,33,0.02,3,Rain-Snow,217
2012-10-12,35,28,21,34,30,21,100,97,87,30.47,30.32,30.15,10,5,0,46,11,63,0.68,7,Fog-Rain-Snow-Thunderstorm,206
2012-10-13,30,24,19,30,21,18,100,96,93,30.29,30.21,30.15,10,2,0,23,14,31,0.00,8,Fog-Snow,228
2012-10-14,,,,,,,,,,,,,,,,,,,,,,
2012-10-15,44,38,33,28,24,16,65,55,44,30.50,30.43,30.38,10,10,10,21,13,28,0.00,0,,219
2012-10-16,44,38,32,21,16,5,60,42,28,30.37,30.26,30.12,10,10,10,37,14,50,0.00,0,,226
2012-10-17,44,37,30,21,5,-13,69,32,14,30.29,30.19,30.10,10,10,10,28,17,45,0.00,0,,244
2012-10-18,46,37,28,12,8,0,44,31,23,30.44,30.37,30.29,10,10,10,21,8,34,0.00,0,,317
2012-10-19,48,40,33,14,11,5,44,32,21,30.44,30.39,30.34,10,10,10,24,13,31,0.00,0,,226
2012-10-20,46,39,32,16,8,-9,41,29,12,30.34,30.28,30.22,10,10,10,31,14,39,0.00,0,,219
2012-10-21,41,34,28,23,19,10,69,53,35,30.27,30.23,30.19,10,10,10,29,20,38,0.00,0,,222
2012-10-22,41,34,28,25,23,19,86,68,45,30.25,30.22,30.19,10,10,10,30,18,41,0.00,1,,222
2012-10-23,39,32,26,27,22,18,93,66,45,30.24,30.21,30.18,10,10,10,34,24,50,0.00,4,,214
2012-10-24,37,30,21,23,16,3,69,54,30,30.24,30.08,29.89,10,10,10,47,20,74,0.00,4,,216
2012-10-25,26,19,12,7,2,-4,67,50,31,30.17,30.10,30.03,10,10,10,33,20,48,0.00,1,,221
2012-10-26,28,16,5,5,-10,-20,79,35,13,30.33,30.27,30.17,10,10,10,24,12,33,0.00,0,,214
2012-10-27,33,24,14,5,-2,-9,41,33,25,30.33,30.25,30.20,10,10,10,29,18,33,0.00,0,,220
2012-10-28,41,34,26,18,13,3,64,45,33,30.44,30.37,30.32,10,10,10,17,7,29,0.00,0,,240
2012-10-29,44,37,30,18,15,12,51,44,34,30.50,30.46,30.44,10,10,10,21,8,25,0.00,0,,231
2012-10-30,44,36,28,14,12,10,55,38,25,30.49,30.45,30.43,10,10,10,17,9,22,0.00,0,,101
2012-10-31,46,39,32,14,10,3,48,34,21,30.49,30.46,30.44,10,10,10,14,7,24,0.00,0,,154